{"data":{"norad_id":58166,"intl_designator":"2023-166S","name":"STARLINK-30789","alt_names":[],"object_type":"PAYLOAD","status":"ACTIVE","operator":null,"country":"US","launch_date":"2023-10-29","launch_site_code":"AFWTR","launch_vehicle":null,"mission":null,"orbit_class":"UNKNOWN","rcs_meters":null,"size_class":null,"mass_kg":null,"dimensions":null,"purposes":["comms"],"wikipedia_slug":null,"has_3d_model":false,"image_url":null,"decayed_at":null,"tle_current":{"epoch":"2026-09-20T14:55:32.893536Z","epoch_age_seconds":129899,"freshness":"FRESH","line1":"1 58166U 23166S   26263.62190849  .00001265  00000+0  48578-4 0  9991","line2":"2 58166  53.1645  32.8091 0000339 139.3391 220.7637 15.34374165163049","mean_motion":15.34374165,"eccentricity":3.39e-5,"inclination_deg":53.1645,"raan_deg":32.8091,"arg_perigee_deg":139.3391,"mean_anomaly_deg":220.7637,"bstar":4.8578e-5,"rev_number":16304,"period_min":93.849338241432,"perigee_km":462.54812126174,"apogee_km":463.01193543626,"semimajor_km":6840.917028349,"source":"CELESTRAK","updated_at":"2026-09-21T09:00:33.824252Z"}}}